| time (UTC) | temp C | wind direction | speed KPH | gust KPH | rain 1hr cm | rain 24hr cm | rain mn cm | humidity % | barometer mb |
| 20260504081550 | 5 | 0 | 0.0 | 0.0 | 0.00 | 0.00 | 0.00 | 88 | 1015.8 |
| 20260504044552 | 3 | 0 | 0.0 | 0.0 | 0.00 | 0.00 | 0.00 | 84 | 1015.9 |
| 20260504043053 | 3 | 0 | 0.0 | 0.0 | 0.00 | 0.00 | 0.00 | 84 | 1016.0 |
| 20260504041555 | 3 | 0 | 0.0 | 0.0 | 0.00 | 0.00 | 0.00 | 83 | 1016.0 |
| 20260504040057 | 3 | 0 | 0.0 | 0.0 | 0.00 | 0.00 | 0.00 | 82 | 1015.8 |
| 20260504034553 | 3 | 0 | 0.0 | 0.0 | 0.00 | 0.00 | 0.00 | 81 | 1015.8 |
| 20260504033054 | 4 | 0 | 0.0 | 0.0 | 0.00 | 0.00 | 0.00 | 80 | 1015.7 |
| 20260504031553 | 4 | 0 | 0.0 | 0.0 | 0.00 | 0.00 | 0.00 | 79 | 1015.6 |
| 20260504030056 | 5 | 0 | 0.0 | 0.0 | 0.00 | 0.00 | 0.00 | 77 | 1015.7 |
| 20260504024616 | 5 | 0 | 0.0 | 0.0 | 0.00 | 0.00 | 0.00 | 75 | 1015.5 |
| 20260504023049 | 5 | 0 | 0.0 | 0.0 | 0.00 | 0.00 | 0.00 | 73 | 1015.5 |
| 20260504021550 | 6 | 0 | 0.0 | 0.0 | 0.00 | 0.00 | 0.00 | 71 | 1015.6 |
| 20260504020047 | 6 | 0 | 0.0 | 0.0 | 0.00 | 0.00 | 0.00 | 69 | 1015.3 |
| 20260504014601 | 7 | 0 | 0.0 | 0.0 | 0.00 | 0.00 | 0.00 | 66 | 1015.2 |
| 20260504013056 | 7 | 0 | 0.0 | 0.0 | 0.00 | 0.00 | 0.00 | 65 | 1015.4 |
| 20260504011550 | 8 | 0 | 0.0 | 0.0 | 0.00 | 0.00 | 0.00 | 61 | 1015.2 |
| 20260504010057 | 8 | 0 | 0.0 | 0.0 | 0.00 | 0.00 | 0.00 | 58 | 1015.1 |
| 20260504004550 | 9 | 0 | 0.0 | 0.0 | 0.00 | 0.00 | 0.00 | 55 | 1015.0 |
| 20260504003057 | 10 | 0 | 0.0 | 0.0 | 0.00 | 0.00 | 0.00 | 52 | 1014.8 |
| 20260504001554 | 11 | 0 | 0.0 | 0.0 | 0.00 | 0.00 | 0.00 | 48 | 1014.6 |
| 20260504000128 | 12 | 0 | 0.0 | 0.0 | 0.00 | 0.00 | 0.00 | 45 | 1014.5 |
| 20260503234559 | 13 | 0 | 0.0 | 0.0 | 0.00 | 0.00 | 0.00 | 41 | 1014.6 |
| 20260503233049 | 14 | 0 | 0.0 | 0.0 | 0.00 | 0.00 | 0.00 | 38 | 1014.4 |
| 20260503231546 | 15 | 0 | 0.0 | 1.6 | 0.00 | 0.00 | 0.00 | 36 | 1014.1 |
| 20260503230050 | 15 | 288 | 0.0 | 4.8 | 0.00 | 0.00 | 0.00 | 36 | 1014.2 |
| 20260503224550 | 15 | 0 | 0.0 | 3.2 | 0.00 | 0.00 | 0.00 | 35 | 1014.2 |
| 20260503223052 | 15 | 0 | 0.0 | 6.4 | 0.00 | 0.00 | 0.00 | 36 | 1014.2 |
| 20260503221555 | 15 | 0 | 0.0 | 6.4 | 0.00 | 0.00 | 0.00 | 35 | 1014.2 |
| 20260503220053 | 15 | 151 | 0.0 | 4.8 | 0.00 | 0.00 | 0.00 | 33 | 1014.2 |
| 20260503214556 | 16 | 291 | 0.0 | 8.0 | 0.00 | 0.00 | 0.00 | 34 | 1014.3 |
| 20260503213051 | 15 | 271 | 0.0 | 8.0 | 0.00 | 0.00 | 0.00 | 35 | 1014.3 |
| 20260503211559 | 16 | 314 | 1.6 | 6.4 | 0.00 | 0.00 | 0.00 | 33 | 1014.1 |
| 20260503210050 | 16 | 229 | 0.0 | 9.7 | 0.00 | 0.00 | 0.00 | 33 | 1014.2 |
| 20260503204552 | 16 | 314 | 1.6 | 4.8 | 0.00 | 0.00 | 0.00 | 33 | 1014.4 |
| 20260503203107 | 17 | 276 | 1.6 | 6.4 | 0.00 | 0.00 | 0.00 | 34 | 1014.4 |
| 20260503201554 | 16 | 335 | 1.6 | 9.7 | 0.00 | 0.00 | 0.00 | 35 | 1014.6 |
| 20260503200049 | 17 | 345 | 3.2 | 12.9 | 0.00 | 0.00 | 0.00 | 33 | 1014.9 |
| 20260503194556 | 16 | 30 | 1.6 | 9.7 | 0.00 | 0.00 | 0.00 | 34 | 1015.0 |
| 20260503193052 | 17 | 232 | 1.6 | 9.7 | 0.00 | 0.00 | 0.00 | 35 | 1015.3 |
| 20260503191553 | 16 | 341 | 1.6 | 11.3 | 0.00 | 0.00 | 0.00 | 38 | 1015.4 |
| 20260503190049 | 16 | 128 | 1.6 | 6.4 | 0.00 | 0.00 | 0.00 | 39 | 1015.5 |
| 20260503184551 | 16 | 86 | 0.0 | 6.4 | 0.00 | 0.00 | 0.00 | 38 | 1015.7 |
| 20260503183053 | 15 | 311 | 1.6 | 12.9 | 0.00 | 0.00 | 0.00 | 35 | 1015.8 |
| 20260503181602 | 16 | 258 | 1.6 | 11.3 | 0.00 | 0.00 | 0.00 | 35 | 1015.9 |
| 20260503174551 | 15 | 338 | 0.0 | 9.7 | 0.00 | 0.00 | 0.00 | 39 | 1016.3 |
| 20260503173058 | 15 | 285 | 1.6 | 9.7 | 0.00 | 0.00 | 0.00 | 36 | 1016.3 |
| 20260503171550 | 15 | 14 | 0.0 | 11.3 | 0.00 | 0.00 | 0.00 | 38 | 1016.3 |